Location: UBC Liquid-Mirror Observatory
(49.2876°N, 122.5728°W)
Time: 01:24:12
(UTC-07:00)

Amateur Radio Satellites - All Passes

Search period start: 02 October 2014 00:54
Search period end: 03 October 2014 00:54
Location: UBC Liquid-Mirror Observatory, 49.2876°N, 122.5728°W

Satellite Date Start Highest point End Downlink Frequencies (MHz)
Time Altitude Azimuth
ISS 02 Oct 01:37:18 01:40:35 54° 0° (N) 01:43:52 145.800 FM
RS-15 02 Oct 01:47:38 01:57:01 35° 107° (ESE) 02:06:19 29.354 - 29.394 USB, Beacon 29.352 USB
SO-50 02 Oct 02:04:40 02:08:29 23° 29° (NNE) 02:12:20 436.795 FM
Oscar 19 02 Oct 02:05:21 02:09:50 29° 94° (E) 02:14:17 437.125 CW, 437.150 USB
ITAMSAT 1 02 Oct 02:20:02 02:23:36 18° 89° (E) 02:27:08 435.822 SSB
Uribyol 2 02 Oct 02:20:31 02:24:16 20° 90° (E) 02:27:59 436.500 FM
UOSAT-12 02 Oct 02:26:43 02:29:02 13° 8° (N) 02:31:21 437.025 FM, 437.400 FM
KITSAT 1 02 Oct 02:38:14 02:46:13 66° 240° (WSW) 02:54:09 435.175 FM
JAS-1B 02 Oct 02:40:24 02:45:38 36° 97° (E) 02:51:09 435.800 - 435.900 CW/SSB
Oscar 16 02 Oct 02:46:16 02:51:25 66° 102° (ESE) 02:56:31 437.025 USB, Beacon 2401.1428
AO-Echo 02 Oct 02:47:24 02:52:03 37° 97° (E) 02:56:47 ?
AO-27 02 Oct 02:57:56 03:02:48 37° 97° (E) 03:07:38 436.795 MHz FM
ISS 02 Oct 03:14:06 03:17:27 87° 196° (SSW) 03:20:47 145.800 FM
Gurwin Techsat 1B 02 Oct 03:28:39 03:33:34 36° 96° (E) 03:38:27 435.225 FM
OPAL 02 Oct 03:32:49 03:36:40 21° 55° (NE) 03:40:31 ?
Oscar 10/S400 02 Oct 03:42:07 04:22:39 14° 248° (WSW) 05:30:32 145.825 - 145.975 CW/USB, Beacon 145.810 USB
Oscar 19 02 Oct 03:44:28 03:49:21 44° 293° (WNW) 03:54:12 437.125 CW, 437.150 USB
SO-50 02 Oct 03:44:53 03:49:43 85° 50° (NE) 03:54:36 436.795 FM
TMSAT-1 02 Oct 03:56:29 04:01:37 47° 99° (E) 04:06:43 436.925 FM
RS-15 02 Oct 03:57:19 04:08:19 81° 312° (NW) 04:19:22 29.354 - 29.394 USB, Beacon 29.352 USB
ITAMSAT 1 02 Oct 03:58:25 04:03:39 73° 288° (WNW) 04:08:52 435.822 SSB
Uribyol 2 02 Oct 03:59:02 04:04:15 69° 289° (WNW) 04:09:26 436.500 FM
UOSAT-12 02 Oct 04:06:44 04:10:46 27° 32° (NNE) 04:14:46 437.025 FM, 437.400 FM
Uosat F 02 Oct 04:12:00 04:13:45 12° 86° (E) 04:15:31 435.120 FM
AO-Echo 02 Oct 04:26:17 04:30:48 35° 295° (WNW) 04:35:26 ?
Oscar 16 02 Oct 04:26:26 04:30:20 22° 302° (WNW) 04:34:12 437.025 USB, Beacon 2401.1428
JAS-1B 02 Oct 04:31:14 04:36:27 39° 296° (WNW) 04:41:54 435.800 - 435.900 CW/SSB
AO-7 02 Oct 04:35:43 04:42:50 31° 93° (E) 04:49:54 29.400 - 29.500 MHz
KITSAT 1 02 Oct 04:35:54 04:40:04 15° 261° (W) 04:44:15 435.175 FM
AO-27 02 Oct 04:37:33 04:42:18 36° 296° (WNW) 04:47:03 436.795 MHz FM
ISS 02 Oct 04:51:13 04:53:49 21° 219° (SW) 04:56:24 145.800 FM
Gurwin Techsat 1B 02 Oct 05:08:40 05:13:33 38° 295° (WNW) 05:18:25 435.225 FM
OPAL 02 Oct 05:09:49 05:15:02 73° 254° (WSW) 05:20:17 ?
MaSat-1 02 Oct 05:24:33 05:28:44 30° 110° (ESE) 05:32:42 437.345 MHz
SO-50 02 Oct 05:26:39 05:29:43 17° 249° (WSW) 05:32:47 436.795 FM
TMSAT-1 02 Oct 05:36:47 05:41:22 30° 298° (WNW) 05:45:56 436.925 FM
ITAMSAT 1 02 Oct 05:39:39 05:42:17 14° 308° (NW) 05:44:56 435.822 SSB
Uribyol 2 02 Oct 05:40:24 05:42:49 13° 309° (NW) 05:45:14 436.500 FM
JAS-2 02 Oct 05:44:31 05:49:49 24° 90° (E) 05:55:32 435.800 - 435.900 CW/SSB, 435.910 FM
UOSAT-12 02 Oct 05:46:39 05:51:24 74° 233° (SW) 05:56:04 437.025 FM, 437.400 FM
Uosat F 02 Oct 05:48:18 05:53:23 79° 105° (ESE) 05:58:26 435.120 FM
Hamsat 02 Oct 05:52:23 05:54:18 13° 87° (E) 05:56:13 145.90 MHz
RS-15 02 Oct 06:12:21 06:22:28 40° 342° (NNW) 06:32:44 29.354 - 29.394 USB, Beacon 29.352 USB
STRAND 1 02 Oct 06:13:54 06:18:35 38° 65° (ENE) 06:23:18 ?
AO-7 02 Oct 06:28:04 06:36:20 73° 294° (WNW) 06:44:35 29.400 - 29.500 MHz
OPAL 02 Oct 06:53:11 06:54:49 11° 273° (W) 06:56:27 ?
MaSat-1 02 Oct 07:00:31 07:05:05 43° 307° (NW) 07:09:19 437.345 MHz
SO-67 02 Oct 07:13:42 07:14:49 11° 88° (E) 07:15:57 435.3500 MHz FM
Hamsat 02 Oct 07:26:35 07:30:48 73° 286° (WNW) 07:34:58 145.90 MHz
Uosat F 02 Oct 07:28:12 07:31:36 18° 304° (WNW) 07:34:59 435.120 FM
JAS-2 02 Oct 07:28:50 07:35:23 78° 288° (WNW) 07:42:45 435.800 - 435.900 CW/SSB, 435.910 FM
UOSAT-12 02 Oct 07:29:03 07:30:43 12° 252° (WSW) 07:32:23 437.025 FM, 437.400 FM
STRAND 1 02 Oct 07:53:13 07:57:50 34° 264° (W) 08:02:29 ?
AO-7 02 Oct 08:21:52 08:27:52 23° 317° (NW) 08:33:53 29.400 - 29.500 MHz
RS-15 02 Oct 08:28:09 08:38:15 39° 16° (NNE) 08:48:35 29.354 - 29.394 USB, Beacon 29.352 USB
MaSat-1 02 Oct 08:41:18 08:42:32 11° 327° (NNW) 08:43:44 437.345 MHz
SO-67 02 Oct 08:44:48 08:48:13 58° 286° (WNW) 08:51:36 435.3500 MHz FM
Sapphire 02 Oct 08:55:16 08:59:07 20° 107° (ESE) 09:02:59 437.095 MHz 1200 baud AX-25 AFSK
Hamsat 02 Oct 09:05:25 09:05:59 10° 305° (NW) 09:06:33 145.90 MHz
JAS-2 02 Oct 09:15:15 09:19:40 20° 306° (NW) 09:24:24 435.800 - 435.900 CW/SSB, 435.910 FM
PCSat 02 Oct 09:19:31 09:24:17 33° 112° (ESE) 09:29:06 145.825 MHz
HO-68 02 Oct 09:22:56 09:29:10 31° 93° (E) 09:35:21 435.675 MHz FM
Oscar 11 02 Oct 09:49:53 09:52:18 15° 88° (E) 09:54:42 145.825 FM, Beacon 2401.500 USB
FUNcube-1 02 Oct 10:18:04 10:20:15 13° 86° (E) 10:22:25 145.950 - 145.970 MHz USB
UKube-1 02 Oct 10:19:37 10:23:35 33° 97° (E) 10:27:32 145.840 MHz, 145.915 MHz
Sapphire 02 Oct 10:36:32 10:41:57 77° 307° (NW) 10:47:25 437.095 MHz 1200 baud AX-25 AFSK
RS-15 02 Oct 10:41:34 10:52:40 74° 46° (NE) 11:04:10 29.354 - 29.394 USB, Beacon 29.352 USB
ZACube-1 02 Oct 11:02:09 11:06:20 34° 95° (E) 11:10:24 437.345 MHz
PCSat 02 Oct 11:02:16 11:07:32 50° 313° (NW) 11:12:51 145.825 MHz
HO-68 02 Oct 11:10:15 11:17:21 65° 294° (WNW) 11:24:26 435.675 MHz FM
Oscar 11 02 Oct 11:24:39 11:28:58 68° 287° (WNW) 11:33:15 145.825 FM, Beacon 2401.500 USB
JAS-1B 02 Oct 11:45:05 11:47:03 12° 46° (NE) 11:48:57 435.800 - 435.900 CW/SSB
Oscar 19 02 Oct 11:50:51 11:52:53 12° 51° (NE) 11:54:55 437.125 CW, 437.150 USB
FUNcube-1 02 Oct 11:52:41 11:57:17 81° 285° (WNW) 12:01:44 145.950 - 145.970 MHz USB
UKube-1 02 Oct 11:55:54 11:59:45 31° 295° (WNW) 12:03:35 145.840 MHz, 145.915 MHz
Sapphire 02 Oct 12:22:06 12:26:16 22° 329° (NNW) 12:30:28 437.095 MHz 1200 baud AX-25 AFSK
Oscar 16 02 Oct 12:29:35 12:33:42 24° 60° (ENE) 12:37:50 437.025 USB, Beacon 2401.1428
AO-Echo 02 Oct 12:29:50 12:31:29 12° 52° (NE) 12:33:08 ?
ZACube-1 02 Oct 12:38:38 12:42:41 31° 295° (WNW) 12:46:39 437.345 MHz
AO-27 02 Oct 12:43:36 12:46:39 16° 54° (NE) 12:49:42 436.795 MHz FM
PCSat 02 Oct 12:48:44 12:52:16 17° 336° (NNW) 12:55:48 145.825 MHz
RS-15 02 Oct 12:54:25 13:04:22 40° 250° (WSW) 13:14:41 29.354 - 29.394 USB, Beacon 29.352 USB
HO-68 02 Oct 12:59:20 13:03:48 18° 315° (NW) 13:08:17 435.675 MHz FM
Oscar 11 02 Oct 13:03:53 13:04:20 10° 306° (NW) 13:04:47 145.825 FM, Beacon 2401.500 USB
Gurwin Techsat 1B 02 Oct 13:16:53 13:20:00 16° 54° (NE) 13:23:08 435.225 FM
Oscar 19 02 Oct 13:26:08 13:31:16 64° 71° (ENE) 13:36:25 437.125 CW, 437.150 USB
JAS-1B 02 Oct 13:29:40 13:36:34 52° 67° (ENE) 13:42:30 435.800 - 435.900 CW/SSB
FUNcube-1 02 Oct 13:30:55 13:32:54 13° 305° (NW) 13:34:52 145.950 - 145.970 MHz USB
MaSat-1 02 Oct 13:35:35 13:38:04 17° 40° (NE) 13:40:20 437.345 MHz
ITAMSAT 1 02 Oct 13:41:46 13:46:36 41° 66° (ENE) 13:51:28 435.822 SSB
Uribyol 2 02 Oct 13:42:09 13:47:03 44° 66° (ENE) 13:51:59 436.500 FM
TMSAT-1 02 Oct 13:43:47 13:47:29 20° 57° (ENE) 13:51:11 436.925 FM
AO-7 02 Oct 13:50:32 13:55:52 19° 39° (NE) 14:01:11 29.400 - 29.500 MHz
Oscar 10/S400 02 Oct 14:00:18 14:08:59 14° 143° (SE) 14:17:38 145.825 - 145.975 CW/USB, Beacon 145.810 USB
AO-Echo 02 Oct 14:04:43 14:09:23 70° 72° (ENE) 14:14:09 ?
Oscar 16 02 Oct 14:07:35 14:12:42 59° 259° (W) 14:17:51 437.025 USB, Beacon 2401.1428
Sapphire 02 Oct 14:09:48 14:11:51 12° 355° (N) 14:13:54 437.095 MHz 1200 baud AX-25 AFSK
AO-27 02 Oct 14:20:14 14:25:25 84° 73° (ENE) 14:30:40 436.795 MHz FM
Saudisat 1A 02 Oct 14:25:13 14:29:29 52° 123° (ESE) 14:33:48 436.775 MHz
PCSat 02 Oct 14:36:04 14:38:03 12° 3° (N) 14:40:01 145.825 MHz
Gurwin Techsat 1B 02 Oct 14:53:53 14:59:12 83° 73° (ENE) 15:04:33 435.225 FM
Oscar 19 02 Oct 15:07:13 15:11:04 21° 270° (W) 15:14:55 437.125 CW, 437.150 USB
MaSat-1 02 Oct 15:11:28 15:14:52 50° 245° (WSW) 15:17:48 437.345 MHz
JAS-1B 02 Oct 15:21:00 15:27:27 33° 264° (W) 15:33:05 435.800 - 435.900 CW/SSB
TMSAT-1 02 Oct 15:21:31 15:26:49 79° 256° (WSW) 15:32:10 436.925 FM
ITAMSAT 1 02 Oct 15:21:35 15:26:12 32° 265° (W) 15:30:51 435.822 SSB
Uribyol 2 02 Oct 15:22:08 15:26:41 30° 265° (W) 15:31:16 436.500 FM
KITSAT 1 02 Oct 15:23:48 15:24:45 10° 95° (E) 15:25:42 435.175 FM
Uosat F 02 Oct 15:28:13 15:32:22 27° 61° (ENE) 15:36:33 435.120 FM
AO-7 02 Oct 15:39:00 15:47:04 60° 62° (ENE) 15:55:10 29.400 - 29.500 MHz
AO-Echo 02 Oct 15:45:51 15:48:44 16° 271° (W) 15:51:39 ?
Sapphire 02 Oct 15:54:19 15:57:41 16° 22° (NNE) 16:01:01 437.095 MHz 1200 baud AX-25 AFSK
AO-27 02 Oct 16:02:38 16:05:38 15° 272° (W) 16:08:39 436.795 MHz FM
JAS-2 02 Oct 16:04:39 16:07:23 14° 49° (NE) 16:10:13 435.800 - 435.900 CW/SSB, 435.910 FM
Saudisat 1A 02 Oct 16:05:24 16:09:18 30° 324° (NW) 16:13:14 436.775 MHz
PCSat 02 Oct 16:19:39 16:23:41 20° 29° (NNE) 16:27:41 145.825 MHz
Gurwin Techsat 1B 02 Oct 16:36:39 16:39:51 16° 273° (W) 16:43:05 435.225 FM
Hamsat 02 Oct 16:49:31 16:52:23 18° 61° (ENE) 16:55:15 145.90 MHz
TMSAT-1 02 Oct 17:05:31 17:07:38 12° 275° (W) 17:09:45 436.925 FM
Uosat F 02 Oct 17:06:05 17:10:55 49° 260° (W) 17:15:49 435.120 FM
KITSAT 1 02 Oct 17:10:31 17:18:14 52° 116° (ESE) 17:25:58 435.175 FM
OPAL 02 Oct 17:16:26 17:20:13 21° 93° (E) 17:23:56 ?
AO-7 02 Oct 17:32:38 17:40:14 39° 263° (W) 17:47:52 29.400 - 29.500 MHz
Sapphire 02 Oct 17:37:17 17:42:31 45° 46° (NE) 17:47:43 437.095 MHz 1200 baud AX-25 AFSK
JAS-2 02 Oct 17:46:14 17:51:26 74° 72° (ENE) 17:57:04 435.800 - 435.900 CW/SSB, 435.910 FM
Saudisat 1A 02 Oct 17:48:16 17:50:15 13° 347° (NNW) 17:52:15 436.775 MHz
PCSat 02 Oct 18:02:40 18:08:06 69° 52° (NE) 18:13:31 145.825 MHz
HO-68 02 Oct 18:15:18 18:16:42 11° 35° (NE) 18:18:06 435.675 MHz FM
Hamsat 02 Oct 18:23:39 18:27:56 62° 259° (W) 18:32:12 145.90 MHz
OPAL 02 Oct 18:54:29 18:59:33 63° 292° (WNW) 19:04:31 ?
KITSAT 1 02 Oct 19:05:51 19:13:42 53° 319° (NW) 19:21:37 435.175 FM
Sapphire 02 Oct 19:20:54 19:25:54 38° 246° (WSW) 19:30:51 437.095 MHz 1200 baud AX-25 AFSK
SO-67 02 Oct 19:21:12 19:24:39 86° 76° (ENE) 19:28:08 435.3500 MHz FM
Saudisat 1A 02 Oct 19:29:47 19:31:43 13° 12° (NNE) 19:33:39 436.775 MHz
JAS-2 02 Oct 19:33:57 19:37:22 17° 274° (W) 19:40:56 435.800 - 435.900 CW/SSB, 435.910 FM
SO-50 02 Oct 19:43:49 19:48:15 62° 125° (SE) 19:52:51 436.795 FM
PCSat 02 Oct 19:46:51 19:51:03 23° 252° (WSW) 19:55:13 145.825 MHz
HO-68 02 Oct 19:56:03 20:02:27 37° 58° (ENE) 20:08:52 435.675 MHz FM
STRAND 1 02 Oct 19:58:47 20:03:54 60° 102° (ESE) 20:08:59 ?
UOSAT-12 02 Oct 20:04:31 20:06:24 12° 108° (ESE) 20:08:17 437.025 FM, 437.400 FM
OPAL 02 Oct 20:35:20 20:37:28 13° 312° (NW) 20:39:36 ?
Oscar 11 02 Oct 20:48:45 20:52:00 21° 62° (ENE) 20:55:15 145.825 FM, Beacon 2401.500 USB
KITSAT 1 02 Oct 21:04:33 21:11:07 26° 346° (NNW) 21:17:42 435.175 FM
Saudisat 1A 02 Oct 21:08:48 21:12:42 29° 36° (NE) 21:16:34 436.775 MHz
FUNcube-1 02 Oct 21:18:03 21:21:20 20° 60° (ENE) 21:24:39 145.950 - 145.970 MHz USB
UKube-1 02 Oct 21:18:56 21:23:07 49° 69° (ENE) 21:27:20 145.840 MHz, 145.915 MHz
SO-50 02 Oct 21:25:12 21:29:11 29° 326° (NW) 21:33:16 436.795 FM
ISS 02 Oct 21:36:31 21:38:24 14° 137° (SE) 21:40:17 145.800 FM
STRAND 1 02 Oct 21:38:40 21:42:44 24° 301° (WNW) 21:46:46 ?
UOSAT-12 02 Oct 21:41:05 21:45:44 77° 127° (SE) 21:50:29 437.025 FM, 437.400 FM
HO-68 02 Oct 21:42:55 21:49:55 57° 258° (WSW) 21:56:59 435.675 MHz FM
ZACube-1 02 Oct 22:02:17 22:06:40 46° 69° (ENE) 22:11:07 437.345 MHz
Oscar 11 02 Oct 22:23:36 22:27:52 52° 260° (W) 22:32:09 145.825 FM, Beacon 2401.500 USB
Saudisat 1A 02 Oct 22:48:12 22:52:33 56° 236° (SW) 22:56:52 436.775 MHz
FUNcube-1 02 Oct 22:52:45 22:57:17 62° 259° (W) 23:01:54 145.950 - 145.970 MHz USB
UKube-1 02 Oct 22:56:21 22:59:35 20° 268° (W) 23:02:51 145.840 MHz, 145.915 MHz
KITSAT 1 02 Oct 23:02:48 23:09:27 27° 16° (NNE) 23:16:05 435.175 FM
SO-50 02 Oct 23:08:55 23:11:16 14° 350° (N) 23:13:38 436.795 FM
ISS 02 Oct 23:11:18 23:14:36 65° 155° (SSE) 23:17:55 145.800 FM
UOSAT-12 02 Oct 23:22:28 23:26:24 26° 328° (NNW) 23:30:24 437.025 FM, 437.400 FM
HO-68 02 Oct 23:37:45 23:39:15 11° 279° (W) 23:40:45 435.675 MHz FM
ZACube-1 02 Oct 23:39:35 23:43:17 24° 268° (W) 23:47:02 437.345 MHz
